Погода в Пекарах-Силезских

Польша     50°22′27″N   18°56′38″E
темп.,
°C
ветер,
м/с
пор.,
м/с
влажн.,
%
обл.,
%
осадки,
мм/ч
давл.,
гПа
погр.,
м
5 декабря, вс
вс501:00+1юв1157100 0.0 100445
04:00−1ююв2491100 0.8 1003244
07:00−1ююв2697100 2.9 1004250
10:00+1юз31096100 0.5 1005573
13:00+1юз3797100 0.6 1005339
16:00+1юз2499100 0.1 1006182
19:00+1з1297100 0.1 1007238
22:00+1зсз1399100 0.1 1008236
6 декабря, пн
пн601:00+1з1499100 0.9 1009242
04:00+1зсз1499100 0.4 1009288
07:00+1з2590100 0.5 1011472
10:000зсз3584100 0.0 1013623
13:000зсз3581100 0.1 1013613
16:00−1зсз3576100 0.0 1014736
19:00−1сз3584100 0.1 1014510
22:00−2зсз3489100 0.1 1015429
7 декабря, вт
вт701:00−3сз248990 0.3 1014301
04:00−2сз2382100 0.1 1013603
07:00−2ссз1282100 0.1 1013394
10:00−2сз2280100 0.1 1014431
13:00−1ссз1271100 0.1 1014706
16:00−1ссв1169100 0.0 1014396
19:00−2в237699 0.0 1014364
22:00−1в237299 0.0 1014530
8 декабря, ср
ср801:00−2в247695 0.0 1014516
04:00−2вюв467090 0.0 1013799
07:00−3в488482 0.0 1013515
10:00−2вюв5107864 0.0 1012596
13:00−1вюв467144 0.0 1011598
16:00−2вюв4881100 0.0 1011385
19:00−2в51180100 0.0 1010426
22:00−3в498589 0.0 1010362
9 декабря, чт
чт901:00−3в3786100 0.0 1009259
04:00−2вюв258099 0.0 1009243
07:00−2в3580100 0.0 1009252
10:00−2в2278100 0.1 1009246
13:00−1св2375100 0.1 1008334
16:00−2всв1496100 0.9 1007232
19:00−2всв2597100 2.1 1005301
22:00−1св2498100 3.1 1004244